Lee's Summit, MO

2:30 AM CST on December 10, 2016 (GMT -0600)
Lee's Summit Municipal

Weather History for KLXT - October, 2013

Change the Weather History Date:

Friday, October 25, 2013

  Actual Average (KMKC) Record (KMKC)
Temperature  
Mean Temperature 42 °F -  
Max Temperature 55 °F 62 °F 86 °F (2011)
Min Temperature 30 °F 46 °F 30 °F (2013)
Degree Days  
Heating Degree Days 22    
Moisture  
Dew Point 24 °F    
Average Humidity 49    
Maximum Humidity 82    
Minimum Humidity 27    
Precipitation  
Precipitation 0.00 in - - ()
Sea Level Pressure  
Sea Level Pressure 30.38 in    
Wind  
Wind Speed 7 mph (SSW)    
Max Wind Speed 13 mph    
Max Gust Speed 23 mph    
Visibility 10 miles    
Events      
Averages and records for this station are not official NWS values.
T = Trace of Precipitation, MM = Missing Value Source: NWS Daily Summary

Daily Weather History Graph

Daily Weather History Graph

Search for Another Location

Airport or City:

Trip Planner

Search our weather history database for the weather conditions in past years. The results will help you decide how hot, cold, wet, or windy it might be!

Date:

Astronomy

Oct. 25, 2013 Rise Set
Actual Time 7:37 AM CDT 6:24 PM CDT
Civil Twilight 7:10 AM CDT 6:52 PM CDT
Nautical Twilight 6:38 AM CDT 7:23 PM CDT
Astronomical Twilight 6:08 AM CDT 7:54 PM CDT
Moon 11:46 PM CDT (10/25) 1:17 PM CDT (10/25)
Length of Visible Light 11h 41m
Length of Day
10h 47m
Waning Gibbous, 62% of the Moon is Illuminated
Oct 25
Waning Gibbous
Oct 26
Last Quarter
Nov 3
New
Nov 9
First Quarter
Nov 17
Full

Hourly Weather History & Observations

Time (CDT) Temp. Windchill Dew Point Humidity Pressure Visibility Wind Dir Wind Speed Gust Speed Precip Events Conditions
12:53 AM 33.1 °F 30.0 °F 26.1 °F 75% 30.46 in 10.0 mi SSW 3.5 mph - N/A   Clear
1:53 AM 33.1 °F 30.0 °F 26.1 °F 75% 30.47 in 10.0 mi SW 3.5 mph - N/A   Clear
2:53 AM 30.9 °F 27.5 °F 25.0 °F 79% 30.48 in 10.0 mi SW 3.5 mph - N/A   Clear
3:53 AM 30.9 °F 26.2 °F 26.1 °F 82% 30.48 in 10.0 mi SW 4.6 mph - N/A   Clear
4:53 AM 32.0 °F 27.5 °F 25.0 °F 75% 30.48 in 10.0 mi SSW 4.6 mph - N/A   Clear
5:53 AM 32.0 °F 27.5 °F 24.1 °F 73% 30.49 in 10.0 mi SSW 4.6 mph - N/A   Clear
6:53 AM 33.1 °F 28.7 °F 24.1 °F 70% 30.49 in 10.0 mi SSW 4.6 mph - N/A   Clear
7:53 AM 33.1 °F 27.7 °F 24.1 °F 70% 30.49 in 10.0 mi SSW 5.8 mph - N/A   Clear
8:53 AM 37.0 °F 31.6 °F 26.1 °F 65% 30.49 in 10.0 mi SSW 6.9 mph - N/A   Clear
9:53 AM 43.0 °F 36.8 °F 27.0 °F 53% 30.50 in 10.0 mi South 11.5 mph - N/A   Clear
10:53 AM 46.9 °F - 24.1 °F 41% 30.48 in 10.0 mi South 9.2 mph 18.4 mph N/A   Clear
11:53 AM 50.0 °F - 23.0 °F 35% 30.46 in 10.0 mi South 12.7 mph - N/A   Clear
12:53 PM 52.0 °F - 23.0 °F 32% 30.43 in 10.0 mi SSW 10.4 mph 23.0 mph N/A   Clear
1:53 PM 54.0 °F - 21.9 °F 29% 30.39 in 10.0 mi South 12.7 mph - N/A   Clear
2:45 PM 55.0 °F - 21.0 °F 27% 30.34 in 10.0 mi SSW 11.5 mph - N/A   Partly Cloudy
2:53 PM 55.0 °F - 21.0 °F 27% 30.36 in 10.0 mi SSW 12.7 mph - N/A   Clear
3:53 PM 55.0 °F - 21.9 °F 28% 30.33 in 10.0 mi South 9.2 mph 19.6 mph N/A   Clear
4:53 PM 55.0 °F - 21.9 °F 28% 30.29 in 10.0 mi South 10.4 mph - N/A   Clear
5:53 PM 53.1 °F - 21.9 °F 30% 30.26 in 10.0 mi South 10.4 mph - N/A   Clear
6:53 PM 50.0 °F - 23.0 °F 35% 30.25 in 10.0 mi South 5.8 mph - N/A   Clear
7:53 PM 48.9 °F - 24.1 °F 38% 30.23 in 10.0 mi South 6.9 mph - N/A   Clear
8:53 PM 48.9 °F - 24.1 °F 38% 30.22 in 10.0 mi South 6.9 mph - N/A   Clear
9:53 PM 46.9 °F - 25.0 °F 42% 30.21 in 10.0 mi SSW 6.9 mph - N/A   Clear
10:53 PM 46.9 °F - 25.0 °F 42% 30.20 in 10.0 mi SSW 6.9 mph - N/A   Clear
11:53 PM 48.0 °F - 27.0 °F 44% 30.17 in 10.0 mi SW 11.5 mph - N/A   Overcast